Regional Weather Roundup
Issued by NWS Lake Charles, LA

Home | Current Version | Previous Version | Text Only | Print | Product List | Glossary On
Versions: 1 2 3 4 5 6 7 8 9 10 11 12 13 14 15 16 17 18 19 20 21 22 23 24 25 26 27 28 29 30 31 32 33 34 35 36 37 38 39 40 41 42 43 44 45 46 47 48 49 50
000
ASUS44 KLCH 300510
RWRLCH
RWRLCH
REGIONAL WEATHER ROUNDUP
NATIONAL WEATHER SERVICE LAKE CHARLES LA
1200 AM CDT SUN AUG 30 2015

Note: "fair" indicates few or no clouds below 12,000 feet with no
significant weather and/or obstructions to visibility.


ACROSS SOUTHEAST TEXAS

CITY           SKY/WX    TMP DP  RH WIND       PRES   REMARKS
BEAUMONT       PTCLDY    72  69  90 CALM      30.01S
BEAUMONT CITY    N/A     72  67  84 CALM      30.02S
ORANGE         CLEAR    N/A N/A N/A CALM      30.03S
JASPER         MOCLDY    75  69  81 CALM      30.04S
$$

ACROSS CENTRAL LOUISIANA

CITY           SKY/WX    TMP DP  RH WIND       PRES   REMARKS
LEESVILLE      CLOUDY    78  66  67 SW5       30.01S
FULLERTON        N/A     74  64  71 CALM      29.99F
ALEXANDRIA INT MOCLDY    74  68  81 CALM      29.99S
ESLER FIELD    MOCLDY    72  66  81 CALM      30.01S
DERIDDER         N/A     75  66  75 CALM      30.04S
OAKDALE          N/A     68  67  95 CALM      30.02R
OPELOUSAS        N/A     72  68  86 CALM      30.02S
$$

ACROSS SOUTHWEST AND SOUTH CENTRAL LOUISIANA

CITY           SKY/WX    TMP DP  RH WIND       PRES   REMARKS
SULPHUR        CLEAR     73  71  93 CALM      30.02F
LAKE CHARLES   CLEAR     72  69  90 CALM      30.01S
CHENNAULT INT  CLEAR     78  69  72 W5        30.02S
CAMERON PHI    CLEAR     81  70  69 SW3       30.04F
DEQUINCY         N/A     71  69  92 CALM      30.02S
JENNINGS         N/A     73  70  90 CALM      30.02S
LAFAYETTE      PTCLDY    76  67  73 S5        30.02S
NEW IBERIA     PTCLDY    74  69  85 CALM      30.02F
ABBEVILLE        N/A     73  69  88 CALM      30.02F
PATTERSON      CLEAR     72  66  83 CALM      30.04S
SALT POINT       N/A     81  69  67 VRB3      30.01S
$$

SELECTED SITES ACROSS THE REGION

CITY           SKY/WX    TMP DP  RH WIND       PRES   REMARKS
HOUSTON BUSH   MOCLDY    75  66  73 S3        30.01F
HOUSTON HOBBY  MOCLDY    74  67  78 SE3       30.01S
GALVESTON      MOCLDY    80  68  66 SE3       30.02S
COLLEGE STAT   PTCLDY    77  66  68 SE9       30.00F
CONROE         PTCLDY    74  64  71 CALM      30.02S
HUNTSVILLE     PTCLDY    79  64  60 S6        30.02S
LUFKIN         MOCLDY    75  64  68 S5        30.01S
SHREVEPORT     MOCLDY    78  69  73 CALM      29.99S
MONROE         MOCLDY    76  66  71 CALM      30.00F
NATCHEZ MS     CLEAR     73  66  78 SE6       30.03S
BATON ROUGE    CLEAR     74  69  85 CALM      30.02S
N.O. INTL ARPT PTCLDY    78  66  66 SW7       30.03S
SLIDELL        CLEAR     71  70  96 CALM      30.02F
$$

MARINE REPORTS

STATION/POSITION TIME  TEMP    WIND        PRES    VSBY  WAVE
                       AIR SEA DIR/SP/G                  HT/PER
                 (UTC) (F)     (DEG/KT/KT) (MB)    (MI)  (FT/S)
BUOY 30 S HIGH I 0450   83 86  170/  4/  6 1016.1S
SEA RIM ST PARK  0500   82     180/  5/  6 1016.9F
PORT ARTHUR      NOT AVBL
SABINE PASS N    NOT AVBL
TEXAS POINT      NOT AVBL
CALCASIEU PASS   NOT AVBL
LK CHARLES BEACH NOT AVBL
MARSH ISLAND     0400   84     190/  5/  7   N/A           0
FRESH WATER LOCK NOT AVBL
AMERADA PASS     NOT AVBL
$$



USA.gov is the U.S. government's official web portal to all federal, state and local government web resources and services.